TJS-9

Last updated on Sun Apr 05 2026 00:02:53 GMT+0000 (Coordinated Universal Time)

1 50574U 21135A 26094.20332660 -.00000299 00000+0 00000+0 0 9995 2 50574 0.0693 278.9417 0003778 146.9185 337.0909 1.00273017 15680
UTC large
Height (km)
Speed (km/s)
/
Latitude / Longitude
Inclination (degrees)
Orbital Period (minutes)
Azimuth
Elevation
Range (km)
Doppler Factor

Next 0 passes for location: London (51.5072 / 0.1276)

Sorry there are no passes over London.